#timestamp,LO_Frequency,Hit 
1498928415.1,286046514.9,N
1498928416.0,286046514.9,N
1498928435.8,286046517.9,N
1498928455.6,286046515.6,N
1498928475.5,286046515.6,N
1498928495.3,286046516.7,N
1498928515.1,286046517.4,N
1498928535.9,286046515.3,N
1498928555.7,286046517.9,N
1498928575.5,286046517.8,N
1498928595.4,286046517.0,N
1498928615.2,286046517.1,N
1498928635.0,286046517.2,N
1498928635.9,286046517.2,N
1498928655.8,286046519.5,N
1498928675.6,286046516.7,N
1498928695.4,286046516.9,N
1498928715.3,286046516.5,N
1498928735.1,286046517.0,N
1498928736.0,286046517.0,N
1498928755.8,286046519.4,N
1498928775.7,286046519.4,N
1498928795.5,286046519.2,N
1498928815.3,286046517.0,N
1498928835.2,286046516.9,N
1498928855.9,286046519.2,N
1498928875.7,286046516.7,N
1498928895.6,286046517.2,N
1498928915.4,286046516.9,N
1498928935.2,286046517.1,N
1498928955.1,286046516.9,N
1498928956.0,286046516.9,N
1498928975.8,286046519.4,N
1498928995.6,286046519.1,N
1498929015.5,286046516.6,N
1498929035.3,286046516.6,N
1498929055.1,286046519.5,N
1498929075.9,286046518.8,N
1498929095.7,286046519.0,N
1498929115.5,286046518.9,N
1498929135.4,286046519.5,N
1498929155.2,286046519.3,N
1498929175.0,286046519.5,N
1498929175.9,286046519.5,N
1498929195.8,286046518.7,N
1498929215.6,286046518.1,N
1498929235.4,286046518.6,N
1498929255.3,286046520.6,N
1498929275.1,286046520.7,N
1498929276.0,286046520.7,N
1498929295.8,286046520.8,N
1498929315.7,286046518.7,N
1498929335.5,286046518.8,N
1498929355.3,286046519.5,N
1498929375.2,286046518.8,N
1498929395.9,286046519.3,N
1498929415.7,286046519.1,N
1498929435.6,286046516.6,N
1498929455.4,286046516.5,N
1498929475.2,286046519.0,N
1498929495.1,286046518.4,N
1498929496.0,286046518.4,N
1498929515.8,286046518.8,N
1498929535.6,286046519.1,N
1498929555.5,286046517.1,N
1498929575.3,286046516.5,N
1498929595.1,286046521.2,N
1498929615.9,286046519.2,N
1498929635.7,286046517.1,N
1498929655.5,286046518.3,N
1498929675.4,286046518.6,N
1498929695.2,286046519.6,N
1498929715.0,286046516.5,N
1498929715.9,286046516.5,N
1498929735.8,286046517.9,N
1498929755.6,286046517.0,N
1498929775.4,286046519.1,N
1498929795.3,286046519.3,N
1498929815.1,286046519.1,N
1498929816.0,286046519.1,N
1498929835.8,286046519.1,N
1498929855.7,286046519.5,N
1498929875.5,286046519.2,N
1498929895.3,286046516.5,N
1498929915.2,286046517.3,N
1498929935.9,286046516.9,N
1498929955.7,286046517.0,N
1498929975.6,286046517.1,N
1498929995.4,286046517.0,N
1498930015.2,286046516.9,N
1498930035.1,286046516.7,N
1498930036.0,286046516.7,N
1498930055.8,286046518.9,N
1498930075.6,286046518.8,N
1498930095.5,286046518.3,N
1498930115.3,286046518.6,N
1498930135.1,286046520.8,N
1498930155.9,286046518.5,N
1498930175.7,286046518.4,N
1498930195.5,286046518.4,N
1498930215.4,286046518.6,N
1498930235.2,286046518.5,N
1498930255.0,286046518.1,N
1498930255.9,286046518.1,N
1498930275.8,286046518.5,N
1498930295.6,286046518.9,N
1498930315.4,286046518.1,N
1498930335.3,286046518.2,N
1498930355.1,286046518.1,N
1498930356.0,286046518.1,N
1498930375.8,286046518.1,N
1498930395.7,286046518.1,N
1498930415.5,286046518.2,N
1498930435.3,286046518.1,N
1498930455.2,286046518.6,N
1498930475.9,286046518.4,N
1498930495.7,286046518.7,N
1498930515.6,286046518.6,N
1498930535.4,286046518.3,N
1498930555.2,286046518.5,N
1498930575.1,286046519.0,N
1498930576.0,286046519.0,N
1498930595.8,286046519.6,N
1498930615.6,286046519.2,N
1498930635.5,286046518.6,N
1498930655.3,286046518.5,N
1498930675.1,286046518.2,N
1498930695.9,286046518.3,N
1498930715.7,286046521.0,N
1498930735.5,286046518.5,N
1498930755.4,286046520.5,N
1498930775.2,286046521.2,N
1498930795.0,286046521.1,N
1498930795.9,286046521.1,N
1498930815.8,286046518.3,N
1498930835.6,286046520.7,N
1498930855.4,286046520.8,N
1498930875.3,286046518.6,N
1498930895.1,286046520.7,N
1498930896.0,286046520.7,N
1498930915.8,286046521.0,N
1498930935.7,286046521.2,N
1498930955.5,286046518.2,N
1498930975.3,286046520.5,N
1498930995.2,286046520.0,N
1498931015.9,286046521.2,N
1498931035.7,286046520.9,N
1498931055.6,286046520.7,N
1498931075.4,286046521.0,N
1498931095.2,286046520.0,N
1498931115.1,286046520.8,N
1498931116.0,286046520.8,N
1498931135.8,286046518.2,N
1498931155.6,286046518.7,N
1498931175.5,286046518.6,N
1498931195.3,286046521.1,N
1498931215.1,286046520.2,N
1498931235.9,286046521.0,N
1498931255.7,286046521.0,N
1498931275.5,286046520.2,N
1498931295.4,286046519.7,N
1498931315.2,286046519.7,N
1498931335.0,286046519.7,N
1498931335.9,286046519.7,N
1498931355.8,286046520.0,N
1498931375.6,286046519.7,N
1498931395.4,286046520.5,N
1498931415.3,286046520.1,N
1498931435.1,286046521.1,N
1498931436.0,286046521.1,N
1498931455.8,286046520.4,N
1498931475.7,286046520.2,N
1498931495.5,286046519.9,N
1498931515.3,286046522.3,N
1498931535.2,286046520.2,N
1498931555.9,286046519.8,N
1498931575.7,286046522.7,N
1498931595.6,286046522.1,N
1498931615.4,286046522.3,N
1498931635.2,286046522.5,N
1498931655.1,286046519.9,N
1498931656.0,286046519.9,N
1498931675.8,286046518.1,N
1498931695.6,286046518.5,N
1498931715.5,286046520.8,N
1498931735.3,286046520.6,N
1498931755.1,286046520.8,N
1498931775.9,286046520.0,N
1498931795.7,286046520.9,N
1498931815.5,286046520.6,N
1498931835.4,286046519.8,N
1498931855.2,286046520.5,N
1498931875.0,286046519.7,N
1498931875.9,286046519.7,N
1498931895.8,286046519.8,N
1498931915.6,286046519.7,N
1498931935.4,286046519.7,N
1498931955.3,286046520.0,N
1498931975.1,286046519.8,N
1498931976.0,286046519.8,N
1498931995.8,286046521.6,N
